Location: Bucquoy
(50.1391°N, 2.7097°E)
Time: 08:56:30
(UTC+00:00)

In-Cosmos 22 - Pass Details

Date: 06 May 2021
Orbit: 784 x 877 km, 81.2° (Epoch: 21 June)

Event Time Altitude Azimuth Distance (km) Brightness Sun altitude
Exits shadow 02:48:08 13° 197° (SSW) 2,312 5.9 -12.2°
Maximum altitude 02:53:20 77° 283° (WNW) 881 4.2 -11.6°
Drops below altitude 10° 02:58:56 10° 10° (N) 2,462 7.5 -10.9°
Sets 03:01:20 0° 12° (NNE) 3,385 8.3 -10.7°
